Location: Ostrava
(49.8330°N, 18.2830°E)
Time: 17:30:13
(UTC+02:00)

NOAA 19 - Visible Passes

Search period start: 01 October 2016 00:00
Search period end: 11 October 2016 00:00
Orbit: 843 x 861 km, 99.1° (Epoch: 30 September)

Date Brightness Start Highest point End Pass type
(mag) Time Alt. Az. Time Alt. Az. Time Alt. Az.
01 Oct 7.1 02:57:39 10° NE 03:02:05 24° E 03:03:29 22° ESE visible
01 Oct 5.2 04:37:42 10° N 04:43:13 62° WNW 04:45:30 35° SW visible
02 Oct 7.3 02:46:34 10° NE 02:50:32 20° E 02:51:48 18° ESE visible
02 Oct 5.1 04:26:15 10° NNE 04:31:50 75° WNW 04:33:50 41° SSW visible
02 Oct 6.8 06:08:23 10° NNW 06:11:39 16° NW 06:14:55 10° W visible
03 Oct 7.5 02:35:39 10° NE 02:38:57 16° E 02:40:08 15° ESE visible
03 Oct 5.1 04:14:49 10° NNE 04:20:26 90° SE 04:22:10 47° SSW visible
03 Oct 6.7 05:56:39 10° N 06:00:25 19° NW 06:04:11 10° W visible
04 Oct 7.8 02:25:00 10° ENE 02:27:22 13° E 02:28:28 12° E visible
04 Oct 5.3 04:03:25 10° NNE 04:09:01 75° ESE 04:10:30 50° S visible
04 Oct 6.5 05:44:58 10° N 05:49:11 22° NW 05:52:31 13° W visible
05 Oct 5.6 03:52:02 10° NNE 03:57:35 62° ESE 03:58:50 49° SSE visible
05 Oct 6.3 05:33:21 10° N 05:37:54 26° WNW 05:40:51 17° W visible
06 Oct 5.9 03:40:42 10° NNE 03:46:07 50° E 03:47:10 44° SE visible
06 Oct 6.0 05:21:46 10° N 05:26:36 31° WNW 05:29:11 21° WSW visible
07 Oct 6.2 03:29:23 10° NNE 03:34:39 41° E 03:35:29 39° ESE visible
07 Oct 5.8 05:10:13 10° N 05:15:18 37° WNW 05:17:31 27° WSW visible
08 Oct 6.5 03:18:07 10° NNE 03:23:09 34° E 03:23:49 33° ESE visible
08 Oct 5.6 04:58:42 10° N 05:03:58 45° WNW 05:05:50 33° WSW visible
09 Oct 6.8 03:06:55 10° NE 03:11:38 28° E 03:12:08 27° ESE visible
09 Oct 5.3 04:47:12 10° N 04:52:37 54° WNW 04:54:10 41° WSW visible
10 Oct 7.1 02:55:46 10° NE 03:00:05 23° E 03:00:28 22° E visible
10 Oct 5.2 04:35:44 10° N 04:41:15 65° WNW 04:42:29 51° SW visible
10 Oct 6.9 06:18:10 10° NNW 06:20:57 14° NW 06:23:43 10° W visible
